Погода Новоанненский

Погода Новоанненский : погода сейчас, прогноз погоды и архив. Всё, что Вы хотите узнать о погоде Новоанненский!

Поиск расширенной информации на нашем сайте:

Другие новости

Новости СМИ2

Главная страница сайта

Новости сайта

03.07.2017

Напоминаем, что на нашем специализированном сайте Метеоцентр.Азия вы можете получить высокодетализированные автоматические прогнозы погоды по пунктам России, СНГ и мира в авиационном формате (включающие направление и скорость ветра, видимость, явления погоды, количество и форму облачности, нижнюю и верхнюю границу облачности).


Погода Новоанненский - сегодня

Время (UTC), дата Ветер
(°,м/с) 
Видим.   Явления Облачность Т
(°С)
Тd
(°С)
f(%) Тe
(°С)
Pmin
(гПа)
dP
(гПа)
Po
(мм)
O2
(г/м3)
Тmin Tmax R s Состояние
почвы
03 18.07.17 010 (С) 20000 м    6/6 600 м 
[Sc diur, vesp]
+16.7 +14.8 89 +26  1016.1  0.6  753  283  +15.7      мокрая 
06 18.07.17 350 (С) 20000 м    6/6 600 м 
[Cu med, cong]
+19.9 +15.2 74 +30  1017  754  280           
09 18.07.17 340 (С) 20000 м    3/3 1000 м 
[Cu hum]
+23.6 +12.6 50 +28  1016.9  754  277           
12 18.07.17 350 (С) 20000 м    3/3 1000 м 
[Cu hum]
+25.4 +9.5 37 +26  1016.2  -0.6  754  276           
15 18.07.17 010 (С) 20000 м    3/3 1000 м 
[Cu hum]
+25.1 +9.5 37 +26  1015.8  -0.4  753  276    +25.8       
18 18.07.17 010 (С) 20000 м    ясно 
+19.9 +12.4 62 +25  1016.7  0.7  754  281           
21 18.07.17 020 (С) 20000 м    6/6 600 м 
[Sc]
+16.2 +12.3 78 +22  1017.1  0.2  754  284           
00 19.07.17 030 (СВ) 20000 м    6/6 600 м 
[Sc diur, vesp]
+13.8 +11.4 85 +18  1017.4  0.2  754  287           
03 19.07.17 010 (С) 20000 м    6/0 верхняя 
[Ci fib]
+15.1 +11.6 80 +19  1017.2  -0.2  754  286  +13.1        сухая 
06 19.07.17 040 (СВ) 20000 м    3/3 1000 м 
[Cu med, cong]
+22.7 +12.1 51 +27  1017.1  0.2  754  278           
09 19.07.17 040 (СВ) 20000 м    4/3 1000 м верхняя 
[Cu med, cong|Ci fib]
+25.8 +8.7 34 +26  1016.2  -0.8  754  276           
12 19.07.17 020 (С) 20000 м    6/4 1000 м верхняя 
[Cu med, cong|Ci]
+27.4 +9 31 +27  1014.6  -1.5  753  274           
15 19.07.17 010 (С) 4{10}  20000 м    6/4 1000 м верхняя 
[Cu med, cong|Ci fib]
+26.6 +8.2 31 +27  1014.2  -0.4  752  275    +27.6       
18 19.07.17 020 (С) 20000 м    4/0 верхняя 
[Ci fib]
+21 +11.4 54 +24  1014.8  0.4  753  279           
21 19.07.17 010 (С) 20000 м    3/0 верхняя 
[Ci]
+16.6 +11.7 73 +20  1014.4  -0.5  752  283           
00 20.07.17 010 (С) 20000 м    ясно 
+14.3 +11.1 81 +19  1013.8  -0.7  752  286           
03 20.07.17 360 (С) 20000 м    ясно 
+15.7 +11.6 77 +19  1013.8  752  284  +13.4        сухая 
06 20.07.17 030 (СВ) 20000 м    ясно 
+24.2 +12.2 47 +28  1013.1  -0.3  751  276           
09 20.07.17 030 (СВ) 4{12}  20000 м    6/4 600 м верхняя 
[Cu med, cong|Ci]
+27.5 +9.8 33 +28  1012.3  -0.7  751  273           
12 20.07.17 040 (СВ) 4{11}  20000 м    6/4 600 м верхняя 
[Cu med, cong|Ci fib]
+28.6 +9.2 30 +29  1011.2  -1  750  272           
15 20.07.17 020 (С) 20000 м    4/3 1000 м верхняя 
[Cu hum|Ci fib]
+27.7 +11.2 36 +30  1011  -0.2  750  272    +28.8       
18 20.07.17 010 (С) 20000 м    6/0 верхняя 
[Ci]
+22.3 +12.8 55 +27  1012.2  1.1  751  277           
21 20.07.17 020 (С) 20000 м    6/0 верхняя 
[Ci fib]
+19.2 +13.3 69 +26  1012.4  751  280           
00 21.07.17 020 (С) 20000 м    6/0 верхняя 
[Ci fib]
+16 +12.1 78 +21  1012.1  -0.4  750  283           
03 21.07.17 350 (С) 20000 м    4/0 верхняя 
[Ci fib]
+16.4 +11.2 71 +20  1013.2  1.1  751  283  +14.8        сухая 
Время (UTC), дата Ветер
(°,м/с) 
Видим.   Явления Облачность Т
(°С)
Тd
(°С)
f(%) Тe
(°С)
Pmin
(гПа)
dP
(гПа)
Po
(мм)
O2
(г/м3)
Тmin Tmax R s Состояние
почвы

Для получения пояснительной информации подведите курсор к названию столбца.

ПОГОДА Новоанненский - архив

Всё, что Вы хотите узнать о погоде Новоанненский - удобно и подробно!

Выберите нужную дату (начиная с 1 января 2015* года) и нажмите кнопку "Найти".
Будут отображены архивные сводки погоды по пункту Новоанненский, начиная с указанной даты.


Отображать данные в формате CSV (для использования в таблицах Excel)


Внимание! Наш архив погоды предназначен исключительно для личного некоммерческого использования в познавательных целях. Если Вам необходимы официальные справки о состоянии погоды (для производственных, юридических, коммерческих и т.п. целей), обращайтесь в органы Росгидромета.

*Примечание: данная дата относится к архиву по метеостанциям СССР (Россия, СНГ, Балтия).
Архив по метеостанциям Зарубежной Европы и Азии (кроме Китая) хранится 10 дней, по другим регионам земного шара (Китай, Африка, Америка, Австралия, Океания) - 1 день.

Новоанненский - район местоположения метеостанции


Название, широта, долгота, высота метеостанции:
Новоанненский 50.5°ш. 42.7°д. 98 м над ур. моря [Российская Федерация]

Дополнительная информация

В oтличие oт бoльшинства пoгoдных сайтoв мы публикуем пoдрoбную метеoинфoрмацию в детальнoм прoфессиoнальнoм фoрмате.

Характеристики температуры и влажнoсти вoздуха измеряются на высoте 2 м в тени вдали oт зданий и деревьев.
Скoрoсть ветра измеряется на высoте 10 м (на урoвне рoста челoвека скoрoсть ветра ниже в 1.5-2 раза). Если метеoстанция нахoдится в гoрoде или в лесу, тo скoрoсть ветра занижена на 2-4 м/с пo сравнению с oткрытым местoм. Скoрoсть ветра над акватoриями крупных рек и oзёр, а также на вершинах хoлмoв на 2-5 м/с выше, чем в oбычных услoвиях.
Атмoсфернoе давление в разных тoчках местнoсти мoжет значительнo oтличаться oт давления на метеoстанции, в зависимoсти oт услoвий рельефа (при пoдъёме на 10 м давление пoнижается примернo на 1 мм рт.ст.).